GW2402 Weather Reports


Display with metric or nautical units.
time (UTC)temp
F
wind
direction
speed
MPH
gust
MPH
rain 1hr
in
rain 24hr
in
rain mn
in
humidity
%
barometer
mb
20260902153054 88 334 0.0 2.0 0.00 0.00 0.00 67 1015.2
20260902151552 87 4 0.0 2.0 0.00 0.00 0.00 69 1015.3
20260902150048 85 349 0.0 2.0 0.00 0.00 0.00 71 1015.4
20260902144558 84 343 0.0 2.0 0.00 0.00 0.00 74 1015.3
20260902143059 83 351 0.0 4.0 0.00 0.00 0.00 76 1015.4
20260902141549 82 0 1.0 3.0 0.00 0.00 0.00 77 1015.4
20260902140048 82 0 0.0 2.0 0.00 0.00 0.00 78 1015.3
20260902134547 81 0 0.0 1.0 0.00 0.00 0.00 79 1015.3
20260902133044 80 333 0.0 2.0 0.00 0.00 0.00 79 1015.2
20260902131553 79 0 0.0 3.0 0.00 0.00 0.00 81 1015.0
20260902130054 77 0 0.0 1.0 0.00 0.00 0.00 87 1014.9
20260902124600 77 274 0.0 1.0 0.00 0.00 0.00 88 1014.7
20260902123052 77 0 0.0 1.0 0.00 0.00 0.00 87 1014.6
20260902121601 77 0 0.0 0.0 0.00 0.00 0.00 84 1014.3
20260902120049 77 0 0.0 0.0 0.00 0.00 0.00 85 1014.4
20260902114548 77 0 0.0 0.0 0.00 0.00 0.00 85 1014.4
20260902113047 78 0 0.0 0.0 0.00 0.00 0.00 86 1014.1
20260902111553 78 0 0.0 0.0 0.00 0.00 0.00 85 1014.1
20260902110053 78 0 0.0 0.0 0.00 0.00 0.00 84 1014.2
20260902104552 78 0 0.0 0.0 0.00 0.00 0.00 84 1014.1
20260902103045 78 0 0.0 1.0 0.00 0.00 0.00 85 1014.2
20260902101600 78 0 0.0 1.0 0.00 0.00 0.00 85 1014.0
20260902100103 79 0 0.0 1.0 0.00 0.00 0.00 86 1014.1
20260902094558 79 0 0.0 1.0 0.00 0.00 0.00 85 1014.1
20260902093055 80 0 0.0 1.0 0.00 0.00 0.00 83 1014.0
20260902091552 80 0 0.0 0.0 0.00 0.00 0.00 80 1014.2
20260902090047 80 0 0.0 0.0 0.00 0.00 0.00 81 1014.4
20260902084602 80 0 0.0 0.0 0.00 0.00 0.00 81 1014.3
20260902083058 80 0 0.0 0.0 0.00 0.00 0.00 81 1014.2
20260902081600 80 0 0.0 0.0 0.00 0.00 0.00 80 1014.4
20260902080049 80 0 0.0 0.0 0.00 0.00 0.00 79 1014.2
20260902074545 81 0 0.0 0.0 0.00 0.00 0.00 79 1014.3
20260902073053 81 0 0.0 1.0 0.00 0.00 0.00 79 1014.2
20260902071550 81 0 0.0 1.0 0.00 0.00 0.00 80 1014.4
20260902070051 82 0 0.0 1.0 0.00 0.00 0.00 78 1014.5
20260902064557 83 0 0.0 0.0 0.00 0.00 0.00 76 1014.6
20260902063057 83 0 0.0 0.0 0.00 0.00 0.00 74 1014.4
20260902061605 83 0 0.0 0.0 0.00 0.00 0.00 73 1014.4
20260902060048 84 0 0.0 1.0 0.00 0.00 0.00 72 1014.4
20260902054556 84 0 0.0 0.0 0.00 0.00 0.00 73 1014.3
20260902053104 85 0 0.0 0.0 0.00 0.00 0.00 71 1014.3
20260902051553 85 0 0.0 0.0 0.00 0.00 0.00 71 1014.4
20260902050107 85 0 0.0 1.0 0.00 0.00 0.00 69 1014.4
20260902044558 86 353 0.0 1.0 0.00 0.00 0.00 69 1014.2
20260902043050 86 0 0.0 2.0 0.00 0.00 0.00 68 1014.3
20260902041555 87 237 0.0 1.0 0.00 0.00 0.00 67 1014.3
20260902040050 87 0 0.0 1.0 0.00 0.00 0.00 65 1014.2
20260902034559 88 0 0.0 2.0 0.00 0.00 0.00 65 1014.1
20260902033056 88 0 0.0 0.0 0.00 0.00 0.00 64 1013.9
20260902031558 88 0 0.0 0.0 0.00 0.00 0.00 64 1013.6
20260902030048 88 0 0.0 0.0 0.00 0.00 0.00 62 1013.5
20260902024556 89 0 0.0 0.0 0.00 0.00 0.00 61 1013.3
20260902023048 89 0 0.0 0.0 0.00 0.00 0.00 60 1013.1
20260902021549 90 0 0.0 0.0 0.00 0.00 0.00 59 1012.9
20260902020047 90 0 0.0 0.0 0.00 0.00 0.00 58 1012.7
20260902014554 91 0 0.0 1.0 0.00 0.00 0.00 56 1012.4
20260902013049 92 0 0.0 1.0 0.00 0.00 0.00 55 1012.2
20260902011553 92 0 0.0 1.0 0.00 0.00 0.00 54 1012.1
20260902010050 94 0 0.0 1.0 0.00 0.00 0.00 52 1012.0
20260902004557 94 0 0.0 1.0 0.00 0.00 0.00 50 1011.8
20260902003055 95 0 0.0 0.0 0.00 0.00 0.00 48 1011.9
20260902001547 96 0 0.0 1.0 0.00 0.00 0.00 47 1011.9
20260902000050 97 42 0.0 1.0 0.00 0.00 0.00 46 1012.0
20260901234553 98 0 0.0 1.0 0.00 0.00 0.00 47 1012.0
20260901233057 97 0 0.0 1.0 0.00 0.00 0.00 47 1012.1
20260901231548 97 98 0.0 1.0 0.00 0.00 0.00 47 1012.1
20260901230045 98 239 0.0 1.0 0.00 0.00 0.00 45 1011.9
20260901224603 100 0 0.0 1.0 0.00 0.00 0.00 44 1012.1
20260901223055 100 0 0.0 2.0 0.00 0.00 0.00 45 1012.0
20260901221557 100 0 0.0 1.0 0.00 0.00 0.00 44 1012.3
20260901220050 100 0 0.0 1.0 0.00 0.00 0.00 44 1012.3
20260901214601 100 98 0.0 3.0 0.00 0.00 0.00 45 1012.3
20260901213102 99 0 0.0 1.0 0.00 0.00 0.00 45 1012.5
20260901211550 100 257 0.0 1.0 0.00 0.00 0.00 44 1012.3
20260901210113 99 0 0.0 1.0 0.00 0.00 0.00 46 1012.7
20260901204555 99 252 0.0 1.0 0.00 0.00 0.00 45 1012.8
20260901203052 99 252 0.0 2.0 0.00 0.00 0.00 46 1013.1
20260901201559 98 250 0.0 3.0 0.00 0.00 0.00 46 1013.3
20260901200108 97 0 1.0 4.0 0.00 0.00 0.00 48 1013.8
20260901194557 96 281 0.0 1.0 0.00 0.00 0.00 50 1013.7
20260901193050 97 0 0.0 2.0 0.00 0.00 0.00 48 1014.2
20260901191553 97 312 0.0 1.0 0.00 0.00 0.00 49 1014.1
20260901190056 96 13 0.0 1.0 0.00 0.00 0.00 48 1014.2
20260901184604 96 266 0.0 2.0 0.00 0.00 0.00 51 1014.6
20260901183104 96 0 0.0 1.0 0.00 0.00 0.00 52 1014.9
20260901181547 96 0 0.0 1.0 0.00 0.00 0.00 52 1015.0
20260901180043 95 0 0.0 1.0 0.00 0.00 0.00 53 1015.1
20260901174551 95 0 0.0 1.0 0.00 0.00 0.00 53 1015.6
20260901173049 94 0 0.0 1.0 0.00 0.00 0.00 54 1016.0
20260901171558 93 0 0.0 1.0 0.00 0.00 0.00 58 1016.0
20260901170050 91 0 0.0 3.0 0.00 0.00 0.00 61 1016.1
20260901164546 91 0 0.0 3.0 0.00 0.00 0.00 62 1016.1
20260901163101 90 0 0.0 2.0 0.00 0.00 0.00 64 1016.0
20260901161559 90 0 0.0 2.0 0.00 0.00 0.00 65 1016.3
20260901160048 89 0 0.0 1.0 0.00 0.00 0.00 66 1016.5
20260901154610 89 0 0.0 1.0 0.00 0.00 0.00 67 1016.4